{"data":{"norad_id":56834,"intl_designator":"2023-079M","name":"STARLINK-30069","alt_names":[],"object_type":"PAYLOAD","status":"ACTIVE","operator":null,"country":"US","launch_date":"2023-06-04","launch_site_code":"AFETR","launch_vehicle":null,"mission":null,"orbit_class":"UNKNOWN","rcs_meters":null,"size_class":null,"mass_kg":null,"dimensions":null,"purposes":["comms"],"wikipedia_slug":null,"has_3d_model":false,"image_url":null,"decayed_at":null,"tle_current":{"epoch":"2026-05-25T03:54:40.766112Z","epoch_age_seconds":60980,"freshness":"FRESH","line1":"1 56834U 23079M   26145.16297183  .00000030  00000+0  10627-4 0  9994","line2":"2 56834  43.0043  31.7766 0001337 263.4023  96.6676 15.27579421164628","mean_motion":15.27579421,"eccentricity":0.0001337,"inclination_deg":43.0043,"raan_deg":31.7766,"arg_perigee_deg":263.4023,"mean_anomaly_deg":96.6676,"bstar":1.0627e-5,"rev_number":16462,"period_min":94.266784443674,"perigee_km":482.13348896165,"apogee_km":483.96817058733,"semimajor_km":6861.1878297745,"source":"CELESTRAK","updated_at":"2026-05-25T13:38:18.163635Z"}}}